Location: East Irvine
(33.6759°N, 117.7598°W)
Time: 22:12:51
(UTC+00:00)

Spot 4 Rocket - Pass Details

Date: 15 November 2025
Orbit: 769 x 773 km, 98.8° (Epoch: 13 December)

Event Time Altitude Azimuth Distance (km) Brightness Sun altitude
Rises 01:48:53 0° 147° (SSE) 3,226 7.0 -12.8°
Reaches altitude 10° 01:51:17 10° 140° (SE) 2,303 6.2 -13.3°
Maximum altitude 01:56:01 41° 72° (ENE) 1,109 4.3 -14.3°
Drops below altitude 10° 02:00:46 10° 3° (N) 2,315 6.3 -15.2°
Sets 02:03:11 0° 356° (N) 3,245 7.2 -15.7°
